Home   Weather   Beaumont   Past weeks

Flag for USA Past Weather in Beaumont, Texas, USA — Yesterday and Last 2 Weeks

Now
60 °F

Mostly cloudy.


Feels Like: 60 °F
Forecast: 41 / 56 °F
Wind: 8 mph from Northeast

Location: Jefferson County Airport

Current Time: Dec 7, 2016 at 6:34:50 pm

Latest Report: Dec 7, 2016 at 5:53 pm


Visibility: 9 mi

Pressure: 30.08 "Hg

Humidity: 78%

Dew Point: 53 °F

Location of BeaumontLocation

Past Weather in Beaumont — Graph

°F

Beaumont Temperature Yesterday

Maximum temperature yesterday: 71 °F (at 1:53 pm)
Minimum temperature yesterday: 49 °F (at 5:53 am)
Average temperature yesterday: 58 °F

High & Low Weather Summary for the Past Weeks

 TemperatureHumidityPressure
High82 °F (Nov 29, 10:53 am)100% (Nov 28, 11:53 pm)30.37 "Hg (Nov 28, 11:53 pm)
Low41 °F (Dec 1, 1:53 am)26% (Nov 30, 2:53 pm)29.51 "Hg (Nov 28, 3:53 pm)
Average61 °F77%29.98 "Hg
* Reported Nov 22 4:53 pm — Dec 7 4:53 pm, Beaumont, Weather by CustomWeather, © 2016

Note: Actual official high and low records may vary slightly from our data, if they occured in-between our weather recording intervals... More about our weather records

Advertising

Beaumont Weather History for the Previous 24 Hours

Scroll right to see more
 ConditionsComfort  
Time TempWeatherWind HumidityBarometerVisibility
4:53 pm
Wed, Dec 7
60 °FOvercast.10 mph78%30.05 "Hg8 mi
3:53 pm61 °FMore clouds than sun.9 mph75%30.05 "Hg9 mi
2:53 pm61 °FOvercast.5 mph75%30.05 "Hg10 mi
2:00 pm62 °FOvercast.5 mph73%30.05 "Hg10 mi
12:53 pm61 °FOvercast.3 mph75%30.06 "Hg10 mi
11:53 am60 °FOvercast.7 mph78%30.09 "Hg10 mi
11:00 am59 °FOvercast.5 mph81%30.11 "Hg8 mi
9:53 am58 °FMostly cloudy.3 mph84%30.10 "Hg8 mi
8:53 am56 °FLow clouds.6 mph90%30.09 "Hg7 mi
7:53 am56 °FMostly cloudy.6 mph90%30.07 "Hg7 mi
6:53 am55 °FOvercast.3 mph90%30.06 "Hg9 mi
5:53 am55 °FOvercast.5 mph90%30.04 "Hg9 mi
4:53 am54 °FOvercast.6 mph90%30.03 "Hg9 mi
3:53 am55 °FOvercast.5 mph87%30.03 "Hg10 mi
2:53 am55 °FLow clouds.6 mph90%30.02 "Hg9 mi
1:53 am55 °FLow clouds.7 mph90%30.02 "Hg9 mi
12:53 am54 °FMostly cloudy.7 mph93%30.02 "Hg9 mi
11:53 pm
Tue, Dec 6
54 °FOvercast.6 mph90%30.01 "Hg10 mi
10:53 pm56 °FOvercast.5 mph84%30.02 "Hg10 mi
9:53 pm56 °FOvercast.7 mph84%30.02 "Hg10 mi
8:53 pm58 °FOvercast.8 mph78%30.01 "Hg10 mi
7:53 pm58 °FOvercast.10 mph81%29.99 "Hg10 mi
6:53 pm59 °FOvercast.12 mph78%29.98 "Hg10 mi
Weather by CustomWeather, © 2016

See weather overviewHow to use our weather pages